Simultaneous Nadir Overpasses (SNOs) Predictions

Prediction of SNOs between NOAA-19 and NPP Satellite Orbit:

Table of predicted SNOs for the next 14.0 days since TLE Epoch: 2/2/2013
Index Date (NOAA-19) Time (NOAA-19) Lat,Lon (NOAA-19) SZA (NOAA-19 ) Date (NPP) Time (NPP) Lat,Lon (NPP) SZA (NPP ) Distance(km) Time Diff (sec)
1 02/09/2013 21:28:14 -80.87, -13.62 80.96 02/09/2013 21:29:27 -80.87, -13.64 81.00 0.41 73
2 02/09/2013 22:19:14 80.86, 153.88 98.99 02/09/2013 22:20:11 80.85, 154.00 98.94 2.17 57
3 02/09/2013 23:10:15 -80.81, -37.80 81.19 02/09/2013 23:10:54 -80.82, -37.96 81.19 3.02 39
4 02/10/2013 00:01:16 80.82, 129.36 98.82 02/10/2013 00:01:39 80.82, 129.33 98.81 0.49 23
5 02/10/2013 00:52:19 -80.80, -63.04 81.26 02/10/2013 00:52:23 -80.80, -63.00 81.27 0.84 4
6 02/10/2013
